Starlink 6149

operational
NORAD ID: 57122 Int'l Des: 2023-090 Owner: SPXS Country: US Constellation: starlink
LEOCIRCULAR

Über Starlink 6149

Beschreibung wird geladen...

Live-Position

3D-Globus wird geladen...

Nächste Überflüge

Höhenverlauf

Altitude vs Time

uPlot chart will show altitude changes over time

Zweizeiliger Elementsatz

1 57122U 23090X 25351.30827194 -.00001581 00000-0 -10199-3 0 9991
2 57122 43.0034 2.0664 0001158 266.0598 94.0112 15.02540150138026
Epoch: 17. Dez. 2025 • Age: 28 hours

Aktueller Status

Höhe 570.7 km
Geschwindigkeit 7.58 km/s
Subsatellitenpunkt -40.73°S, 19.58°W
Startdatum 23. Juni 2023
Alter 2.4 years
Typ internet

Technische Details

Klassifizierung Payload
Masse 305.00 kg
Trockenmasse 290.00 kg
Gesamtmasse 305.00 kg
Länge 0.20 m
Durchmesser 2.80 m
Spannweite 9.00 m
Form Box + pan
Hersteller SPXS
Bus-Typ Starlink
Phasenstatus In Orbit
Besitzer/Staat SPXS/US

Große Konstellationen

Loading constellations...